Gwinn, MI

7:19 AM EST on January 24, 2018 (GMT -0500)
Sawyer International

Weather History for KSAW - January, 2013

Change the Weather History Date:

Thursday, January 24, 2013

  Actual Average (KESC) Record (KESC)
Temperature  
Mean Temperature 3 °F -  
Max Temperature 8 °F 27 °F 43 °F (1967)
Min Temperature -2 °F 8 °F -14 °F (1963)
Degree Days  
Heating Degree Days 62    
Moisture  
Dew Point -2 °F    
Average Humidity 73    
Maximum Humidity 84    
Minimum Humidity 52    
Precipitation  
Precipitation 0.00 in - - ()
Sea Level Pressure  
Sea Level Pressure 30.40 in    
Wind  
Wind Speed 11 mph (WNW)    
Max Wind Speed 17 mph    
Max Gust Speed 23 mph    
Visibility 7 miles    
Events Snow    
Averages and records for this station are not official NWS values.
T = Trace of Precipitation, MM = Missing Value Source: NWS Daily Summary

Daily Weather History Graph

Daily Weather History Graph

Search for Another Location

Airport or City:

Trip Planner

Search our weather history database for the weather conditions in past years. The results will help you decide how hot, cold, wet, or windy it might be!

Date:

Astronomy

Jan. 24, 2013 Rise Set
Actual Time 8:21 AM EST 5:42 PM EST
Civil Twilight 7:48 AM EST 6:15 PM EST
Nautical Twilight 7:11 AM EST 6:52 PM EST
Astronomical Twilight 6:36 AM EST 7:27 PM EST
Moon 3:42 PM EST 6:20 AM EST
Length of Visible Light 10h 27m
Length of Day
9h 21m
Waxing Gibbous, 94% of the Moon is Illuminated
Jan 24
Waxing Gibbous
Jan 26
Full
Feb 3
Last Quarter
Feb 10
New
Feb 17
First Quarter

Hourly Weather History & Observations

Time (EST) Temp. Windchill Dew Point Humidity Pressure Visibility Wind Dir Wind Speed Gust Speed Precip Events Conditions
12:17 AM 6.8 °F -8.6 °F 0.1 °F 74% 30.28 in 10.0 mi North 11.5 mph - N/A   Overcast
12:37 AM 6.8 °F -8.6 °F 1.4 °F 79% 30.29 in 1.8 mi North 11.5 mph - N/A Snow Light Snow
12:57 AM 6.8 °F -9.3 °F 1.6 °F 79% 30.30 in 1.8 mi North 12.7 mph - N/A Snow Light Snow
1:16 AM 6.8 °F -11.3 °F 1.8 °F 80% 30.31 in 1.8 mi North 16.1 mph 19.6 mph N/A Snow Light Snow
1:37 AM 6.8 °F -11.8 °F 2.7 °F 83% 30.32 in 1.2 mi North 17.3 mph 23.0 mph N/A Snow Light Snow
1:57 AM 6.4 °F -9.0 °F 2.3 °F 83% 30.34 in 1.5 mi NNW 11.5 mph - N/A Snow Light Snow
2:16 AM 6.3 °F -10.0 °F 1.9 °F 82% 30.35 in 1.2 mi NNW 12.7 mph 17.3 mph N/A Snow Light Snow
2:37 AM 5.9 °F -8.9 °F 1.8 °F 83% 30.35 in 1.8 mi NNW 10.4 mph - N/A Snow Light Snow
2:57 AM 5.9 °F -9.7 °F 1.0 °F 80% 30.37 in 5.0 mi NNW 11.5 mph - N/A Snow Light Snow
3:17 AM 5.5 °F -8.4 °F 0.5 °F 80% 30.38 in 5.0 mi NNW 9.2 mph - N/A Snow Light Snow
3:37 AM 5.0 °F -10.8 °F 0.1 °F 80% 30.38 in 2.5 mi NNW 11.5 mph - N/A Snow Light Snow
3:56 AM 5.0 °F -9.1 °F 0.7 °F 82% 30.40 in 3.0 mi NNW 9.2 mph - N/A Snow Light Snow
4:17 AM 4.3 °F -10.9 °F 0.3 °F 84% 30.40 in 2.5 mi NNW 10.4 mph - N/A Snow Light Snow
4:37 AM 5.0 °F -12.3 °F 1.0 °F 84% 30.42 in 1.5 mi NNW 13.8 mph - N/A Snow Light Snow
4:56 AM 4.5 °F -9.8 °F 0.1 °F 82% 30.43 in 3.0 mi NW 9.2 mph - N/A Snow Light Snow
5:17 AM 3.7 °F -12.4 °F -0.8 °F 82% 30.43 in 1.8 mi NW 11.5 mph - N/A Snow Light Snow
5:37 AM 3.2 °F -13.9 °F -1.3 °F 82% 30.44 in 2.0 mi NW 12.7 mph - N/A Snow Light Snow
5:57 AM 2.8 °F -15.7 °F -2.2 °F 79% 30.45 in 2.5 mi NW 15.0 mph 19.6 mph N/A Snow Light Snow
6:50 AM 1.4 °F -16.1 °F -5.8 °F 72% 30.48 in 7.0 mi NW 12.7 mph 19.6 mph N/A Snow Light Snow
7:50 AM -0.4 °F -17.6 °F -7.6 °F 72% 30.49 in 10.0 mi NW 11.5 mph - N/A   Clear
8:50 AM -2.2 °F -18.9 °F -9.4 °F 71% 30.51 in 10.0 mi NW 10.4 mph - N/A   Clear
9:50 AM -0.4 °F -18.4 °F -7.6 °F 72% 30.54 in 10.0 mi NNW 12.7 mph - N/A   Clear
10:50 AM 1.4 °F -14.5 °F -5.8 °F 72% 30.54 in 10.0 mi NW 10.4 mph - N/A   Clear
11:50 AM 3.2 °F -9.1 °F -5.8 °F 66% 30.53 in 10.0 mi NNW 6.9 mph - N/A   Clear
12:50 PM 5.0 °F -4.1 °F -5.8 °F 61% 30.52 in 10.0 mi NW 4.6 mph - N/A   Clear
1:50 PM 6.8 °F - -4.0 °F 61% 30.48 in 10.0 mi Calm Calm - N/A   Clear
2:50 PM 8.6 °F -2.6 °F -4.0 °F 57% 30.48 in 10.0 mi SW 6.9 mph - N/A   Clear
3:50 PM 8.6 °F -1.3 °F -5.8 °F 52% 30.47 in 10.0 mi SW 5.8 mph - N/A   Clear
4:50 PM 8.6 °F 2.0 °F -5.8 °F 52% 30.46 in 10.0 mi SW 3.5 mph - N/A   Overcast
5:50 PM 8.6 °F 2.0 °F -4.0 °F 57% 30.43 in 10.0 mi South 3.5 mph - N/A   Overcast
6:50 PM 6.8 °F -2.0 °F -4.0 °F 61% 30.41 in 10.0 mi SSW 4.6 mph - N/A   Clear
7:50 PM 6.8 °F -2.0 °F -4.0 °F 61% 30.39 in 10.0 mi South 4.6 mph - N/A   Clear
8:50 PM 6.8 °F -4.8 °F -2.2 °F 67% 30.37 in 10.0 mi SSE 6.9 mph - N/A   Mostly Cloudy
9:45 PM 6.8 °F -4.8 °F -0.4 °F 72% 30.35 in 10.0 mi South 6.9 mph - N/A   Overcast
10:17 PM 7.2 °F -6.4 °F -0.4 °F 71% 30.33 in 10.0 mi South 9.2 mph - N/A   Overcast
10:37 PM 7.3 °F -6.2 °F -0.4 °F 71% 30.32 in 10.0 mi South 9.2 mph - N/A   Overcast
10:56 PM 7.3 °F -6.2 °F -0.6 °F 70% 30.32 in 10.0 mi SSW 9.2 mph - N/A   Overcast
11:17 PM 7.5 °F -5.0 °F -0.4 °F 70% 30.31 in 10.0 mi SSW 8.1 mph - N/A   Overcast
11:37 PM 7.5 °F -6.0 °F -0.2 °F 71% 30.31 in 10.0 mi SSW 9.2 mph - N/A   Overcast
11:56 PM 7.5 °F -3.9 °F -0.2 °F 71% 30.30 in 10.0 mi SSW 6.9 mph - N/A   Overcast